Weather History for Fairfield, IA

Change the Weather History Date:

Tuesday, May 21, 2013

  Actual Average Record
Temperature  
Mean Temperature 68 °F -  
Max Temperature 77 °F 76 °F 89 °F (1975)
Min Temperature 60 °F 52 °F 37 °F (2002)
Cooling Degree Days 4    
Growing Degree Days 18 (Base 50)    
Moisture  
Dew Point 57 °F    
Average Humidity 70    
Maximum Humidity 94    
Minimum Humidity 44    
Precipitation  
Precipitation 0.00 in - - ()
Sea Level Pressure  
Sea Level Pressure 29.68 in    
Wind  
Wind Speed 13 mph (SW)    
Max Wind Speed 20 mph    
Max Gust Speed 29 mph    
Visibility 10 miles    
Events Rain    
Averages and records for this station are not official NWS values.
T = Trace of Precipitation, MM = Missing Value Source: NWS Daily Summary

Daily Weather History Graph

Daily Weather History Graph

Search for Another Location

Airport:

Trip Planner

Search our weather history database for the weather conditions in past years. The results will help you decide how hot, cold, wet, or windy it might be!

Date:

Astronomy

May. 21, 2013 Rise Set
Actual Time 5:44 AM CDT 8:25 PM CDT
Civil Twilight 5:12 AM CDT 8:57 PM CDT
Nautical Twilight 4:32 AM CDT 9:37 PM CDT
Astronomical Twilight 3:47 AM CDT 10:22 PM CDT
Moon 4:37 PM CDT (5/21) 3:14 AM CDT (5/21)
Length of Visible Light 15h 44m
Length of Day
14h 40m
Waxing Gibbous, 84% of the Moon is Illuminated
May 21
Waxing Gibbous
May 24
Full
May 31
Last Quarter
Jun 8
New
Jun 16
First Quarter

Hourly Weather History & Observations

Time (CDT) Temp. Dew Point Humidity Pressure Visibility Wind Dir Wind Speed Gust Speed Precip Events Conditions
12:15 AM 66.2 °F 60.8 °F 83% 29.68 in 10.0 mi SW 19.6 mph 28.8 mph N/A   Mostly Cloudy
12:35 AM 66.2 °F 60.8 °F 83% 29.67 in 10.0 mi SSE 11.5 mph - N/A   Overcast
12:55 AM 64.4 °F 60.8 °F 88% 29.66 in 10.0 mi SSE 15.0 mph - N/A Rain Light Rain
1:15 AM 64.4 °F 60.8 °F 88% 29.65 in 10.0 mi South 11.5 mph - N/A   Scattered Clouds
1:35 AM 64.4 °F 60.8 °F 88% 29.65 in 10.0 mi South 10.4 mph - N/A   Clear
1:55 AM 62.6 °F 60.8 °F 94% 29.65 in 10.0 mi South 12.7 mph - N/A   Clear
2:15 AM 62.6 °F 60.8 °F 94% 29.64 in 10.0 mi South 12.7 mph - N/A   Clear
2:35 AM 62.6 °F 60.8 °F 94% 29.64 in 10.0 mi South 11.5 mph 18.4 mph N/A   Clear
2:55 AM 62.6 °F 60.8 °F 94% 29.64 in 10.0 mi South 10.4 mph - N/A   Clear
3:15 AM 62.6 °F 60.8 °F 94% 29.63 in 9.0 mi South 12.7 mph - N/A   Scattered Clouds
3:35 AM 62.6 °F 60.8 °F 94% 29.63 in 10.0 mi South 11.5 mph 18.4 mph N/A   Mostly Cloudy
3:55 AM 62.6 °F 60.8 °F 94% 29.63 in 10.0 mi South 12.7 mph - N/A   Overcast
4:15 AM 62.6 °F 60.8 °F 94% 29.64 in 10.0 mi South 13.8 mph - N/A   Overcast
4:35 AM 62.6 °F 60.8 °F 94% 29.64 in 10.0 mi South 13.8 mph - N/A   Overcast
4:55 AM 62.6 °F 60.8 °F 94% 29.65 in 10.0 mi South 13.8 mph - N/A   Scattered Clouds
5:15 AM 62.6 °F 59.0 °F 88% 29.65 in 10.0 mi South 10.4 mph - N/A   Scattered Clouds
5:35 AM 60.8 °F 59.0 °F 94% 29.66 in 9.0 mi SSW 11.5 mph - N/A   Scattered Clouds
5:55 AM 60.8 °F 59.0 °F 94% 29.66 in 9.0 mi SSW 11.5 mph - N/A   Partly Cloudy
6:15 AM 62.6 °F 59.0 °F 88% 29.66 in 10.0 mi SSW 10.4 mph - N/A   Clear
6:35 AM 62.6 °F 59.0 °F 88% 29.67 in 10.0 mi SSW 10.4 mph - N/A   Clear
6:55 AM 62.6 °F 59.0 °F 88% 29.67 in 10.0 mi SSW 10.4 mph - N/A   Clear
7:15 AM 64.4 °F 59.0 °F 83% 29.67 in 10.0 mi SW 11.5 mph - N/A   Clear
7:35 AM 64.4 °F 59.0 °F 83% 29.67 in 10.0 mi SW 17.3 mph - N/A   Partly Cloudy
7:55 AM 64.4 °F 57.2 °F 77% 29.68 in 10.0 mi SW 12.7 mph 20.7 mph N/A   Partly Cloudy
8:15 AM 64.4 °F 55.4 °F 73% 29.69 in 10.0 mi WSW 17.3 mph - N/A   Clear
8:35 AM 64.4 °F 55.4 °F 73% 29.69 in 10.0 mi SW 13.8 mph 20.7 mph N/A   Clear
8:55 AM 64.4 °F 55.4 °F 73% 29.70 in 10.0 mi SW 15.0 mph - N/A   Clear
9:15 AM 66.2 °F 57.2 °F 73% 29.70 in 10.0 mi WSW 13.8 mph - N/A   Scattered Clouds
9:35 AM 66.2 °F 57.2 °F 73% 29.71 in 10.0 mi SW 15.0 mph - N/A   Mostly Cloudy
9:55 AM 66.2 °F 57.2 °F 73% 29.71 in 10.0 mi SW 11.5 mph 18.4 mph N/A   Mostly Cloudy
10:15 AM 66.2 °F 57.2 °F 73% 29.71 in 10.0 mi SW 13.8 mph 21.9 mph N/A   Overcast
10:35 AM 66.2 °F 57.2 °F 73% 29.71 in 10.0 mi SW 15.0 mph 21.9 mph N/A   Overcast
10:55 AM 66.2 °F 55.4 °F 68% 29.71 in 10.0 mi SW 18.4 mph - N/A   Overcast
11:15 AM 66.2 °F 55.4 °F 68% 29.71 in 10.0 mi WSW 15.0 mph 21.9 mph N/A   Overcast
11:35 AM 68.0 °F 57.2 °F 68% 29.71 in 10.0 mi SW 12.7 mph 19.6 mph N/A   Overcast
11:55 AM 68.0 °F 55.4 °F 64% 29.72 in 10.0 mi WSW 13.8 mph - N/A   Overcast
12:15 PM 69.8 °F 57.2 °F 64% 29.72 in 10.0 mi WSW 15.0 mph 20.7 mph N/A   Mostly Cloudy
12:35 PM 71.6 °F 57.2 °F 60% 29.71 in 10.0 mi SW 12.7 mph 20.7 mph N/A   Mostly Cloudy
12:55 PM 71.6 °F 55.4 °F 57% 29.71 in 10.0 mi WSW 17.3 mph - N/A   Scattered Clouds
1:15 PM 71.6 °F 57.2 °F 60% 29.71 in 10.0 mi SW 9.2 mph 18.4 mph N/A   Scattered Clouds
1:35 PM 73.4 °F 55.4 °F 53% 29.70 in 10.0 mi SW 13.8 mph - N/A   Scattered Clouds
1:55 PM 73.4 °F 55.4 °F 53% 29.70 in 10.0 mi SW 13.8 mph 23.0 mph N/A   Scattered Clouds
2:15 PM 73.4 °F 55.4 °F 53% 29.70 in 10.0 mi SW 12.7 mph 20.7 mph N/A   Scattered Clouds
2:35 PM 75.2 °F 55.4 °F 50% 29.69 in 10.0 mi SSW 13.8 mph - N/A   Mostly Cloudy
2:55 PM 75.2 °F 55.4 °F 50% 29.70 in 10.0 mi SW 12.7 mph 20.7 mph N/A   Scattered Clouds
3:15 PM 75.2 °F 55.4 °F 50% 29.69 in 10.0 mi SSW 12.7 mph 19.6 mph N/A   Partly Cloudy
3:35 PM 75.2 °F 53.6 °F 47% 29.69 in 10.0 mi SW 10.4 mph 23.0 mph N/A   Scattered Clouds
3:55 PM 75.2 °F 53.6 °F 47% 29.69 in 10.0 mi WSW 10.4 mph 20.7 mph N/A   Partly Cloudy
4:15 PM 77.0 °F 53.6 °F 44% 29.68 in 10.0 mi WSW 13.8 mph - N/A   Clear
4:35 PM 75.2 °F 53.6 °F 47% 29.68 in 10.0 mi SW 13.8 mph 19.6 mph N/A   Scattered Clouds
4:55 PM 75.2 °F 53.6 °F 47% 29.68 in 10.0 mi WSW 11.5 mph 21.9 mph N/A   Scattered Clouds
5:15 PM 75.2 °F 53.6 °F 47% 29.68 in 10.0 mi SW 12.7 mph 20.7 mph N/A   Partly Cloudy
5:35 PM 75.2 °F 53.6 °F 47% 29.67 in 10.0 mi SSW 15.0 mph - N/A   Clear
5:55 PM 75.2 °F 53.6 °F 47% 29.67 in 10.0 mi SW 15.0 mph 20.7 mph N/A   Clear
6:15 PM 75.2 °F 53.6 °F 47% 29.67 in 10.0 mi SW 12.7 mph - N/A   Partly Cloudy
6:35 PM 73.4 °F 53.6 °F 50% 29.67 in 10.0 mi SW 10.4 mph - N/A   Scattered Clouds
6:55 PM 73.4 °F 53.6 °F 50% 29.67 in 10.0 mi SW 10.4 mph - N/A   Mostly Cloudy
7:15 PM 71.6 °F 53.6 °F 53% 29.68 in 10.0 mi SW 6.9 mph - N/A   Scattered Clouds
7:35 PM 71.6 °F 55.4 °F 57% 29.68 in 10.0 mi SW 6.9 mph - N/A   Mostly Cloudy
7:55 PM 71.6 °F 55.4 °F 57% 29.68 in 10.0 mi SW 4.6 mph - N/A   Mostly Cloudy
8:15 PM 69.8 °F 55.4 °F 60% 29.68 in 10.0 mi WSW 6.9 mph - N/A   Overcast
8:35 PM 69.8 °F 55.4 °F 60% 29.68 in 10.0 mi West 4.6 mph - N/A   Overcast
8:55 PM 68.0 °F 55.4 °F 64% 29.68 in 10.0 mi West 3.5 mph - N/A   Overcast
9:15 PM 68.0 °F 55.4 °F 64% 29.68 in 10.0 mi West 3.5 mph - N/A   Overcast
9:35 PM 68.0 °F 55.4 °F 64% 29.68 in 10.0 mi WNW 5.8 mph - N/A   Overcast
9:55 PM 66.2 °F 53.6 °F 64% 29.68 in 10.0 mi WNW 6.9 mph - N/A   Mostly Cloudy
10:15 PM 64.4 °F 53.6 °F 68% 29.69 in 10.0 mi WNW 5.8 mph - N/A   Partly Cloudy
10:35 PM 64.4 °F 53.6 °F 68% 29.69 in 10.0 mi WNW 8.1 mph - N/A   Mostly Cloudy
10:55 PM 62.6 °F 53.6 °F 72% 29.69 in 10.0 mi WNW 6.9 mph - N/A   Overcast
11:15 PM 62.6 °F 53.6 °F 72% 29.70 in 10.0 mi WNW 5.8 mph - N/A   Overcast
11:35 PM 64.4 °F 51.8 °F 64% 29.70 in 10.0 mi West 4.6 mph - N/A   Overcast
11:55 PM 62.6 °F 51.8 °F 68% 29.71 in 10.0 mi West 5.8 mph - N/A   Overcast